Location: Auerberg
(49.7754°N, 12.2296°E)
Time: 17:31:54
(UTC+00:00)

Daily predictions for brighter satellites

Satellite Brightness Start Highest point End
(mag) Time Altitude Azimuth Time Altitude Azimuth Time Altitude Azimuth
USA 267 3.9 19:50:10 10° E 19:56:35 58° NNE 20:02:59 10° WNW
Meteor 1-21 Rocket 4.4 19:51:06 10° S 19:57:00 75° E 20:02:56 10° NNE
Alouette 2 Rocket 3.8 19:56:45 10° N 20:00:25 54° ENE 20:05:10 10° SSE
Cosmos 1953 Rocket 4.5 19:57:25 10° SSE 20:01:13 31° E 20:05:02 10° NNE
Cosmos 2322 Rocket 2.5 19:56:53 10° SSW 20:02:29 77° WNW 20:08:09 10° NNE
SL-08 ROCKET BODY 4.4 19:57:28 10° S 20:03:24 81° E 20:09:30 10° N
NOSS 7 (D) 3.8 20:01:43 10° SSW 20:04:30 55° SE 20:07:08 10° NE
Cosmos 2237 4.2 19:59:32 10° SSW 20:05:13 70° ESE 20:10:57 10° NNE
Cosmos 2084 4.3 20:02:11 10° NW 20:06:30 45° NE 20:10:47 10° ESE
Cosmos 1328 4.1 20:03:40 10° S 20:07:30 49° E 20:11:21 10° NNE
SAR-Lupe-2 4.3 20:06:06 10° NNE 20:09:25 34° E 20:12:43 10° SSE
Cosmos 1455 2.5 20:07:42 10° NNW 20:11:32 67° W 20:15:21 10° S
Cosmos 1825 Rocket 3.6 20:12:26 10° S 20:16:49 65° E 20:21:16 10° NNE
ATLAS CENTAUR R/B 1.8 20:14:58 10° NNW 20:18:35 46° NE 20:22:06 10° ESE
Cosmos 1703 3.2 20:17:31 10° S 20:21:23 79° E 20:25:18 10° NNE
COSMOS 2428 3.5 20:17:33 10° SSE 20:22:30 32° ESE 20:27:29 10° NE
Cosmos 1844 3.9 20:17:54 10° NNW 20:23:43 80° WSW 20:29:25 10° SSE
Cosmos 2322 3.9 20:20:44 10° S 20:26:16 55° ESE 20:31:52 10° NE
CZ-4B DEB 4.3 20:28:15 10° SSE 20:31:35 85° ENE 20:34:58 10° NNW
Cosmos 783 Rocket 4.5 20:27:11 10° SSW 20:32:26 83° ESE 20:37:40 10° NNE
Cosmos 1709 Rocket 4.1 20:26:43 10° S 20:32:59 77° E 20:39:23 10° NNE
NOSS 3-3 (A) 4.4 20:29:24 10° S 20:34:48 40° ESE 20:40:50 10° NE
NOSS 3-3 (C) 4.4 20:29:31 10° S 20:34:55 40° ESE 20:40:57 10° NE
Terra 2.2 20:31:40 11° SE 20:36:03 54° ENE 20:40:42 10° N
Atlas Centaur 2 4.2 20:33:19 10° SSW 20:36:13 13° S 20:38:47 11° SSE
Cosmos 2237 Rocket 3.8 20:33:11 11° SE 20:36:27 18° E 20:40:05 10° ENE
CARTOSAT-1 3.6 20:32:57 10° SSE 20:37:11 81° ENE 20:41:31 10° NNW
Cosmos 2333 4.2 20:32:29 10° SSW 20:38:03 64° ESE 20:43:43 10° NE
Cosmos 2219 Rocket 2.5 20:33:11 10° S 20:38:28 46° ESE 20:43:49 10° NE
Cosmos 2360 Rocket 2.5 20:34:45 10° SW 20:40:23 73° WNW 20:46:05 10° NNE
IGS 5A 4.2 20:36:24 10° S 20:40:26 49° W 20:44:30 10° NNW
Cosmos 1538 Rocket 4.4 20:36:14 10° S 20:41:20 46° ESE 20:46:24 10° NE
Cosmos 2333 Rocket 2.3 20:42:40 10° S 20:48:14 58° ESE 20:53:51 10° NE
Cosmos 1315 Rocket 2.9 20:46:46 10° N 20:50:52 74° ENE 20:54:13 15° SSE
ATLAS 2AS CENTAUR R/B 3.5 20:43:51 10° NW 20:51:25 52° NE 20:58:22 10° ESE
Resurs 01 Rocket 4.0 20:49:27 10° SW 20:52:34 19° W 20:55:43 10° NW
Cosmos-2242 4.1 20:50:08 10° NNW 20:54:14 42° W 20:58:21 10° SSW
Cosmos 1818 4.0 20:50:23 10° SW 20:55:47 68° NW 21:01:16 10° NE
Cosmos 773 Rocket 4.0 20:52:58 10° SSW 20:58:16 90° SE 21:03:37 10° NNE
Cosmos 2221 2.9 20:55:02 10° N 20:59:20 53° ENE 21:02:29 17° SSE
SL-16 R/B 4.3 20:54:46 10° WSW 20:59:45 30° NW 21:04:45 10° NNE
ERS-1 Rocket 3.3 20:56:51 11° S 21:01:41 62° WSW 21:06:42 10° NNW
GEOS 3 Rocket 3.8 20:57:08 10° NE 21:02:33 83° NW 21:07:57 10° SW
USA 215 3.3 20:59:21 10° ENE 21:05:52 62° SE 21:12:20 10° SW
Cosmos 2278 Rocket 2.4 21:03:01 10° NNW 21:08:43 68° ENE 21:13:09 17° SE
Cosmos 1892 3.7 21:07:02 19° SE 21:08:59 30° E 21:12:21 10° NNE
ATLAS 5 CENTAUR R/B 2.3 21:08:19 10° WSW 21:12:29 56° NW 21:17:16 10° NE
Meteor 1-11 4.5 21:07:10 10° SSW 21:12:47 71° WNW 21:18:30 10° N
Cosmos 1844 Rocket 4.1 21:08:25 10° NW 21:13:07 29° WSW 21:17:50 10° SSW
Gblst 52 Del rocket 4.4 21:09:31 10° WNW 21:15:10 67° SSW 21:20:33 14° SE
Cosmos 1943 Rocket 4.3 21:12:08 10° N 21:16:12 19° NE 21:20:13 10° E
SPOT 5 3.6 21:13:56 12° S 21:18:27 50° W 21:23:08 10° NNW
SL-16 R/B 4.0 21:18:56 12° ESE 21:20:52 15° E 21:23:50 10° ENE
Lacrosse 5 rocket 3.4 21:17:33 10° WNW 21:21:14 29° N 21:24:44 10° ENE
Cosmos 2056 Rocket 4.5 21:18:22 10° NNW 21:23:29 41° ENE 21:27:39 15° ESE
Nadezhda 3 Rocket 4.3 21:18:16 10° N 21:24:36 59° ENE 21:29:11 19° SSE
Cosmos 2058 3.2 21:25:00 22° SSE 21:27:25 50° E 21:31:26 10° NNE
Cosmos 2154 Rocket 4.3 21:23:04 18° SSE 21:27:30 52° E 21:33:30 10° NNE
BREEZE M DEB (TANK) 4.0 21:26:49 10° WSW 21:27:39 13° SW 21:27:39 13° SW
Cosmos 1408 3.5 21:29:05 23° SE 21:30:27 31° E 21:33:39 10° NNE
Meteor 2-17 Rocket 4.4 21:27:25 17° S 21:32:15 71° E 21:38:17 10° NNE
In-Cosmos 22 Rocket 4.1 21:29:55 18° S 21:33:48 66° E 21:39:06 10° NNE
Cosmos 2074 Rocket 4.0 21:29:15 14° S 21:34:47 88° E 21:41:03 10° N
TSX-5 3.6 21:31:57 10° NW 21:35:24 79° WSW 21:37:36 25° SSE
Cosmos 1076 Rocket 3.6 21:36:08 23° SSE 21:38:37 59° E 21:42:50 10° NNE
Cosmos 1680 Rocket 3.8 21:35:41 20° S 21:39:07 49° ESE 21:44:15 10° NNE
USA 267 3.3 21:34:04 16° SE 21:39:29 74° SW 21:46:05 10° WNW
CZ-4C R/B 4.3 21:38:44 10° NW 21:44:37 33° NNE 21:51:26 10° E
Cosmos 1842 Rocket 4.3 21:41:54 10° NNW 21:46:04 45° W 21:49:02 18° SSW
JB-3 4.4 21:43:26 10° N 21:47:17 72° WNW 21:49:57 19° SSW
COSMOS 2455 4.2 21:43:07 10° NNW 21:48:36 34° NE 21:54:04 10° ESE
Cosmos 2151 3.9 21:47:18 24° SE 21:49:07 34° E 21:53:00 10° NNE
MTI 4.4 21:48:15 10° N 21:51:16 50° WNW 21:53:10 19° SW
Cosmos 923 Rocket 4.0 21:52:20 16° SSW 21:56:35 85° ESE 22:01:55 10° NNE
Cosmos 2327 Rocket 4.4 21:52:14 18° S 21:56:58 89° E 22:03:09 10° N
ATLAS CENTAUR R/B 2.8 21:54:22 10° WNW 21:57:12 21° WSW 21:58:26 18° SW
Cosmos 1825 2.6 21:58:09 31° SSE 21:59:32 47° E 22:03:11 10° NNE
ALOS 2 3.3 21:58:03 22° SE 22:00:28 45° ENE 22:04:40 10° N
Cosmos 2369 Rocket 4.0 21:56:15 10° NNW 22:00:50 25° NE 22:05:25 10° E
Cosmos 1151 Rocket 4.2 21:57:02 10° N 22:00:59 33° ENE 22:03:13 20° ESE
Cosmos 1980 3.6 21:56:55 16° SSW 22:01:27 76° ESE 22:07:08 10° NNE
Cosmos 44 4.1 22:05:14 25° SE 22:05:55 26° ESE 22:09:35 10° ENE
COSMOS 2428 3.5 22:01:03 10° SW 22:06:34 51° NW 22:12:07 10° NNE
Cosmos 371 Rocket 4.2 22:03:57 10° NNW 22:08:36 42° ENE 22:11:47 19° ESE
GP-B 3.9 22:05:14 10° NNE 22:09:26 40° E 22:11:23 26° SE
Cosmos 1295 Rocket 4.4 22:06:31 22° S 22:10:41 83° E 22:16:49 10° N
NOSS 0 Rocket 4.0 22:07:44 10° SSW 22:13:54 81° WNW 22:20:08 10° NNE
Cosmos 1624 Rocket 3.9 22:08:49 10° NNW 22:14:06 87° WSW 22:16:57 28° SSE
Terra 3.7 22:10:34 10° SW 22:14:06 22° W 22:17:48 10° NW
NOSS 3-4 (A) 3.9 22:07:48 10° NW 22:14:42 70° SW 22:19:47 23° SSE
NOSS 3-4 (C) 3.9 22:07:55 10° NW 22:14:49 71° SW 22:19:55 23° SSE
SL-4 R/B 2.7 22:19:54 18° ENE 22:19:54 18° ENE 22:21:17 10° NNE
Cosmos 2237 Rocket 2.2 22:14:58 15° SSW 22:19:45 87° WNW 22:25:31 10° NNE
Genesis I 3.1 22:18:36 29° SSW 22:20:25 68° SE 22:24:18 10° NE
CREW DRAGON DEMO-1 DEB 4.3 22:22:53 24° E 22:22:53 24° E 22:24:28 10° E
Cosmos 2344 3.6 22:16:02 14° SSW 22:22:28 64° SE 22:30:28 10° NE
Cosmos 2219 Rocket 3.6 22:17:23 10° WSW 22:22:33 37° NW 22:27:46 10° NNE
Elektron 1 4.5 22:21:21 18° SW 22:23:48 89° SSE 22:29:46 10° NE
Cosmos 1346 Rocket 4.4 22:28:04 20° ESE 22:29:08 22° E 22:32:11 10° NE
Thor Agena Rocket 3.7 22:24:47 10° NNE 22:29:55 72° WNW 22:33:18 21° SSW
DELTA 2 R/B (1) 4.4 22:25:49 10° SW 22:36:22 - ESE 22:30:03 28° S
Cosmos 2333 Rocket 3.9 22:27:48 10° WSW 22:32:51 32° NW 22:37:59 10° NNE
Cosmos 1515 Rocket 4.1 22:37:02 10° N 22:41:16 48° ENE 22:43:15 27° SE
BREEZE-M DEB (TANK) 1.9 22:38:28 10° W 22:41:22 41° SW 22:41:22 41° SW
ATLAS 2AS CENTAUR R/B 3.1 22:35:13 10° NW 22:42:31 54° WSW 22:46:25 26° S
EO 1 Del DPAF 3.9 22:39:24 10° N 22:43:02 48° WNW 22:44:59 24° SW
Cosmos 1766 Rocket 3.5 22:44:24 34° S 22:46:17 86° E 22:50:43 10° N
Cosmos 1328 Rocket 3.4 22:44:21 10° N 22:48:41 90° NW 22:50:25 36° S
Gbstr 26 Del rocket 4.0 22:49:28 25° ESE 22:49:28 25° ESE 22:52:13 10° E
Aureole 2 Rocket 2.3 22:46:09 10° NW 22:48:54 47° WSW 22:49:00 47° WSW
USA 215 3.7 22:42:27 10° ENE 22:48:57 63° NNW 22:55:23 10° W
Okean 3 Rocket 3.6 22:47:02 31° SSW 22:49:07 79° W 22:53:34 10° N
Cosmos 1606 2.9 22:47:10 10° NNW 22:51:02 64° W 22:52:19 38° SSW
Cosmos 2278 Rocket 3.8 22:47:56 10° NW 22:52:17 23° WSW 22:54:59 16° SW
Cosmos 2297 3.8 22:48:32 10° NNW 22:54:15 68° WSW 22:57:11 29° S
Cosmos 2218 Rocket 4.0 22:50:54 27° S 22:54:36 80° E 23:00:56 10° NNE
Cosmos 304 Rocket 4.3 22:50:22 10° NNW 22:55:06 53° ENE 22:58:04 22° SE
Cosmos 2228 Rocket 4.1 22:52:33 10° N 22:56:55 40° ENE 22:59:19 23° SE
Cosmos 1420 Rocket 4.0 22:52:46 10° NNW 22:58:02 72° WSW 23:00:36 31° S
Cosmos 2366 rocket 4.0 22:56:35 27° S 23:00:17 84° E 23:06:40 10° N
Cosmos 1943 Rocket 2.3 22:55:16 10° NNW 23:00:59 73° ENE 23:04:40 22° SE
Lacrosse 5 rocket 2.2 22:57:10 10° NW 23:01:05 46° NNE 23:04:47 10° E
Cosmos 1633 3.2 23:01:11 35° SE 23:02:03 43° E 23:05:30 10° NNE
Landsat 4 4.4 22:59:24 10° NNE 23:03:00 41° E 23:03:59 34° SE
SL-16 R/B 2.1 23:00:47 26° SSW 23:04:03 82° ESE 23:09:48 10° NNE
Cosmos 2056 Rocket 4.5 23:00:40 10° NW 23:05:35 36° WSW 23:07:58 25° SSW
Cosmos 1959 Rocket 4.5 23:06:20 27° SSW 23:09:55 83° W 23:16:10 10° N
YAOGAN 11 4.0 23:09:09 34° SSE 23:11:01 87° ENE 23:15:28 10° NNW
Cosmos 1743 Rocket 3.9 23:12:36 33° SSE 23:14:12 53° E 23:18:27 10° NNE
Cosmos 332 Rocket 3.8 23:14:38 10° NNW 23:19:25 69° WSW 23:21:28 34° S
Cosmos 1048 Rocket 4.3 23:19:32 30° SSE 23:21:53 53° ESE 23:27:00 10° NNE
USA 267 4.3 23:21:24 22° SSW 23:23:15 25° SW 23:28:29 10° WNW
Meteor 2-3 Rocket 3.7 23:21:02 28° SSW 23:24:08 80° WNW 23:29:53 10° N
Helios 1A 3.3 23:24:53 36° SSW 23:26:17 53° W 23:30:24 10° NNW
Cosmos 405 2.9 23:24:42 10° NNW 23:28:15 79° W 23:29:08 48° S
Meteor 1-29 4.5 23:25:37 10° NE 23:28:25 24° E 23:29:10 22° ESE
Cosmos 1452 Rocket 3.8 23:27:39 10° NNW 23:32:48 55° WSW 23:35:06 31° S
CZ-4C R/B 3.1 23:27:13 10° NW 23:34:13 76° NE 23:42:25 10° SE
Meteor 2-6 Rocket 4.2 23:29:14 10° N 23:34:45 74° ENE 23:37:54 26° SSE
PSLV R/B 3.7 23:30:45 10° NNE 23:34:56 61° E 23:36:34 35° SSE
COSMOS 2455 2.9 23:28:59 10° NW 23:34:59 66° WSW 23:38:24 26° SSE
Cosmos 1340 3.4 23:34:23 29° SW 23:35:50 43° WNW 23:39:27 10° N
Cosmos 1110 Rocket 4.1 23:31:31 10° NNW 23:36:49 74° ENE 23:40:16 22° SSE
ALOS 2 4.2 23:35:27 19° WSW 23:37:00 23° W 23:40:30 10° NW
Cosmos 1408 Rocket 4.2 23:35:56 27° SW 23:37:57 48° WNW 23:42:15 10° N
SL-16 R/B 3.9 23:32:52 10° ESE 23:38:24 35° ENE 23:43:59 10° N
Cosmos 1151 Rocket 4.4 23:34:46 10° NNW 23:38:27 28° W 23:40:03 22° SW
Cosmos 1603 4.2 23:36:25 28° SSE 23:39:04 47° ESE 23:44:33 10° NE
Cosmos 1727 Rocket 4.3 23:38:33 10° NNW 23:44:37 55° W 23:48:04 26° SSW
APEX 4.1 23:42:42 10° NW 23:44:21 22° W 23:44:21 22° W
Resurs 1-4 Rocket 4.0 23:41:18 10° NE 23:45:14 21° E 23:48:44 11° SE
Cosmos 2369 Rocket 2.1 23:39:52 10° NNW 23:45:29 77° WSW 23:48:49 25° SSE
Cosmos 1500 Rocket 3.6 23:44:49 34° SSW 23:46:41 77° W 23:51:06 10° N
Cosmos 44 3.8 23:43:38 16° WSW 23:46:51 50° NW 23:51:15 10° NNE
Cosmos 371 Rocket 4.4 23:44:41 10° NW 23:48:51 29° W 23:50:25 24° SW
SeaSat 1 3.9 23:45:10 10° NE 23:49:13 25° ESE 23:51:20 19° SE
ISS -1.6 23:51:00 16° ESE 23:51:00 16° ESE 23:52:19 10° E
Helios 1B rocket 2.4 23:49:35 10° NNE 23:53:45 79° ESE 23:55:23 36° S
